Location: Eboldshausen
(51.7766°N, 10.0050°E)
Time: 06:29:05
(UTC+00:00)

Cosmos 2278 Rocket - Pass Details

Date: 15 November 2025
Orbit: 841 x 843 km, 71.0° (Epoch: 12 December)

Event Time Altitude Azimuth Distance (km) Brightness Sun altitude
Rises 16:38:18 0° 171° (S) 3,385 5.4 -10.6°
Reaches altitude 10° 16:41:03 10° 160° (SSE) 2,455 4.6 -11.0°
Maximum altitude 16:45:42 27° 104° (ESE) 1,559 3.1 -11.7°
Enters shadow 16:49:17 15° 56° (NE) 2,144 3.7 -12.2°
